CW3868 Weather Reports


Display with metric or nautical units.
time (UTC)temp
F
wind
direction
speed
MPH
gust
MPH
rain 1hr
in
rain 24hr
in
rain mn
in
humidity
%
barometer
mb
20200920142804 57 61 4.0 13.0 0.00 0.00 0.00 46 1034.5
20200920141805 56 59 6.0 16.0 0.00 0.00 0.00 44 1034.5
20200920140817 55 43 6.0 14.0 0.00 0.00 0.00 46 1034.4
20200920135805 55 64 4.0 16.0 0.00 0.00 0.00 47 1034.4
20200920134804 55 28 6.0 15.0 0.00 0.00 0.00 46 1034.2
20200920133811 54 39 8.0 16.0 0.00 0.00 0.00 48 1034.2
20200920132804 53 41 7.0 13.0 0.00 0.00 0.00 50 1034.1
20200920131817 52 17 5.0 11.0 0.00 0.00 0.00 53 1034.1
20200920130808 50 8 2.0 9.0 0.00 0.00 0.00 58 1034.0
20200920125804 49 17 3.0 10.0 0.00 0.00 0.00 62 1033.8
20200920124804 48 8 5.0 12.0 0.00 0.00 0.00 66 1033.8
20200920123804 47 11 4.0 9.0 0.00 0.00 0.00 71 1033.7
20200920122805 45 14 2.0 5.0 0.00 0.00 0.00 73 1033.6
20200920121804 44 18 4.0 9.0 0.00 0.00 0.00 76 1033.4
20200920120819 42 23 3.0 7.0 0.00 0.00 0.00 81 1033.4
20200920115803 41 27 2.0 4.0 0.00 0.00 0.00 85 1033.3
20200920114805 39 335 1.0 4.0 0.00 0.00 0.00 87 1033.2
20200920113804 38 5 1.0 4.0 0.00 0.00 0.00 88 1033.1
20200920112804 37 360 0.0 0.0 0.00 0.00 0.00 88 1033.0
20200920111804 37 5 0.0 0.0 0.00 0.00 0.00 88 1032.9
20200920110803 36 5 0.0 0.0 0.00 0.00 0.00 88 1032.9
20200920105822 36 5 0.0 0.0 0.00 0.00 0.00 87 1032.8
20200920104804 36 5 0.0 0.0 0.00 0.00 0.00 87 1032.6
20200920103805 36 5 0.0 0.0 0.00 0.00 0.00 87 1032.3
20200920102803 36 5 0.0 0.0 0.00 0.00 0.00 87 1032.2
20200920101805 36 5 0.0 1.0 0.00 0.00 0.00 86 1032.1
20200920100809 36 5 0.0 0.0 0.00 0.00 0.00 86 1032.0
20200920095804 37 5 0.0 1.0 0.00 0.00 0.00 86 1031.9
20200920094803 37 5 0.0 0.0 0.00 0.00 0.00 87 1031.9
20200920093804 37 5 0.0 1.0 0.00 0.00 0.00 87 1031.7
20200920092805 36 5 1.0 2.0 0.00 0.00 0.00 87 1031.6
20200920091804 36 5 0.0 2.0 0.00 0.00 0.00 87 1031.5
20200920090814 36 5 0.0 2.0 0.00 0.00 0.00 86 1031.4
20200920085807 36 5 0.0 1.0 0.00 0.00 0.00 86 1031.2
20200920084809 36 5 0.0 1.0 0.00 0.00 0.00 86 1031.1
20200920083804 37 5 0.0 1.0 0.00 0.00 0.00 86 1031.1
20200920082808 37 5 1.0 2.0 0.00 0.00 0.00 86 1031.0
20200920081805 37 5 0.0 0.0 0.00 0.00 0.00 86 1031.0
20200920080809 37 5 0.0 1.0 0.00 0.00 0.00 86 1031.1
20200920075804 37 5 0.0 2.0 0.00 0.00 0.00 86 1031.1
20200920074805 37 5 0.0 1.0 0.00 0.00 0.00 85 1031.0
20200920073805 37 5 0.0 1.0 0.00 0.00 0.00 84 1031.0
20200920072804 37 5 0.0 0.0 0.00 0.00 0.00 84 1030.9
20200920071804 38 5 0.0 0.0 0.00 0.00 0.00 83 1030.9
20200920070807 38 5 0.0 0.0 0.00 0.00 0.00 84 1030.9
20200920065804 38 5 0.0 1.0 0.00 0.00 0.00 83 1031.0
20200920064804 38 5 0.0 0.0 0.00 0.00 0.00 82 1030.9
20200920063809 38 5 0.0 0.0 0.00 0.00 0.00 82 1030.9
20200920062805 38 5 0.0 0.0 0.00 0.00 0.00 81 1030.8
20200920061803 38 5 0.0 0.0 0.00 0.00 0.00 80 1030.9
20200920060804 39 5 0.0 0.0 0.00 0.00 0.00 79 1030.9
20200920055804 39 5 0.0 0.0 0.00 0.00 0.00 78 1030.8
20200920054806 40 5 0.0 0.0 0.00 0.00 0.00 78 1030.7
20200920053804 40 5 0.0 1.0 0.00 0.00 0.00 78 1030.6
20200920052811 41 5 0.0 2.0 0.00 0.00 0.00 78 1030.5
20200920051804 41 5 0.0 0.0 0.00 0.00 0.00 78 1030.5
20200920050805 41 5 0.0 0.0 0.00 0.00 0.00 76 1030.3
20200920045804 41 5 0.0 1.0 0.00 0.00 0.00 76 1030.3
20200920044804 41 5 1.0 2.0 0.00 0.00 0.00 75 1030.1
20200920043806 42 5 0.0 0.0 0.00 0.00 0.00 75 1030.0
20200920042804 42 5 0.0 2.0 0.00 0.00 0.00 74 1029.9
20200920041813 42 5 0.0 2.0 0.00 0.00 0.00 73 1029.9
20200920040804 42 5 0.0 1.0 0.00 0.00 0.00 73 1029.8
20200920035804 42 5 0.0 2.0 0.00 0.00 0.00 72 1029.8
20200920034804 43 5 0.0 1.0 0.00 0.00 0.00 71 1029.7
20200920033805 43 5 0.0 0.0 0.00 0.00 0.00 70 1029.7
20200920032804 44 5 0.0 1.0 0.00 0.00 0.00 69 1029.6
20200920031804 44 5 0.0 0.0 0.00 0.00 0.00 68 1029.6
20200920030804 45 5 0.0 1.0 0.00 0.00 0.00 67 1029.4
20200920025804 45 5 1.0 2.0 0.00 0.00 0.00 65 1029.4
20200920024804 46 5 0.0 2.0 0.00 0.00 0.00 63 1029.3
20200920023808 46 359 0.0 2.0 0.00 0.00 0.00 62 1029.2
20200920022810 46 7 0.0 2.0 0.00 0.00 0.00 60 1029.1
20200920021804 47 9 0.0 3.0 0.00 0.00 0.00 58 1028.9
20200920020805 47 5 1.0 3.0 0.00 0.00 0.00 57 1028.7
20200920015807 48 5 2.0 4.0 0.00 0.00 0.00 57 1028.7
20200920014804 48 353 2.0 7.0 0.00 0.00 0.00 57 1028.7
20200920013805 48 356 2.0 5.0 0.00 0.00 0.00 59 1028.5
20200920012803 48 5 1.0 3.0 0.00 0.00 0.00 59 1028.5
20200920011808 47 359 1.0 2.0 0.00 0.00 0.00 61 1028.3
20200920010805 48 359 1.0 3.0 0.00 0.00 0.00 63 1028.2
20200920005804 48 359 1.0 2.0 0.00 0.00 0.00 65 1028.2
20200920004804 49 360 0.0 2.0 0.00 0.00 0.00 67 1028.2
20200920003806 49 359 1.0 2.0 0.00 0.00 0.00 66 1028.0
20200920002806 49 359 1.0 2.0 0.00 0.00 0.00 65 1027.9
20200920001803 49 359 0.0 1.0 0.00 0.00 0.00 64 1027.7
20200920000805 50 360 0.0 1.0 0.00 0.00 0.00 63 1027.5
20200919235805 50 360 0.0 0.0 0.00 0.00 0.00 60 1027.4
20200919234804 51 360 0.0 0.0 0.00 0.00 0.00 55 1027.2
20200919233807 52 360 0.0 0.0 0.00 0.00 0.00 53 1027.0
20200919232806 53 360 0.0 0.0 0.00 0.00 0.00 52 1026.8
20200919231804 55 360 0.0 0.0 0.00 0.00 0.00 47 1026.8
20200919230805 56 360 0.0 1.0 0.00 0.00 0.00 45 1026.6
20200919225806 57 0 1.0 3.0 0.00 0.00 0.00 43 1026.5
20200919224809 58 16 0.0 3.0 0.00 0.00 0.00 39 1026.3
20200919223805 59 19 0.0 5.0 0.00 0.00 0.00 36 1026.3
20200919222806 59 2 1.0 10.0 0.00 0.00 0.00 35 1026.3
20200919221803 59 17 3.0 8.0 0.00 0.00 0.00 33 1026.3
20200919220804 60 13 2.0 10.0 0.00 0.00 0.00 34 1026.2
20200919215805 60 347 2.0 7.0 0.00 0.00 0.00 33 1026.1
20200919214804 60 8 4.0 10.0 0.00 0.00 0.00 32 1026.1
20200919213815 60 23 4.0 12.0 0.00 0.00 0.00 34 1025.9
20200919212804 61 0 4.0 9.0 0.00 0.00 0.00 33 1025.7
20200919211809 61 20 6.0 12.0 0.00 0.00 0.00 33 1025.6
20200919210811 61 334 4.0 11.0 0.00 0.00 0.00 34 1025.4
20200919205804 61 339 4.0 10.0 0.00 0.00 0.00 34 1025.3
20200919204804 61 24 3.0 13.0 0.00 0.00 0.00 34 1025.3
20200919203812 61 4 3.0 8.0 0.00 0.00 0.00 34 1025.3
20200919202811 61 45 2.0 10.0 0.00 0.00 0.00 34 1025.2
20200919201803 61 32 3.0 6.0 0.00 0.00 0.00 33 1025.2
20200919200807 61 7 4.0 12.0 0.00 0.00 0.00 32 1025.3
20200919195805 61 7 3.0 10.0 0.00 0.00 0.00 29 1025.3
20200919194804 62 325 3.0 8.0 0.00 0.00 0.00 30 1025.4
20200919193805 62 357 3.0 13.0 0.00 0.00 0.00 30 1025.4
20200919192804 62 343 3.0 10.0 0.00 0.00 0.00 33 1025.3
20200919191804 62 7 2.0 9.0 0.00 0.00 0.00 33 1025.3
20200919190805 62 300 5.0 11.0 0.00 0.00 0.00 34 1025.4
20200919185803 63 329 6.0 12.0 0.00 0.00 0.00 32 1025.4
20200919184804 63 354 2.0 8.0 0.00 0.00 0.00 33 1025.5
20200919183819 63 70 1.0 9.0 0.00 0.00 0.00 33 1025.5
20200919182805 63 24 3.0 10.0 0.00 0.00 0.00 34 1025.5
20200919181804 63 283 3.0 13.0 0.00 0.00 0.00 35 1025.5
20200919180804 63 16 5.0 10.0 0.00 0.00 0.00 33 1025.6
20200919175805 62 40 4.0 15.0 0.00 0.00 0.00 33 1025.7
20200919174803 61 295 2.0 8.0 0.00 0.00 0.00 34 1025.8
20200919173808 61 42 4.0 7.0 0.00 0.00 0.00 36 1025.9
20200919172808 61 262 3.0 7.0 0.00 0.00 0.00 32 1026.0
20200919171804 61 263 5.0 11.0 0.00 0.00 0.00 35 1026.0
20200919170803 61 341 2.0 8.0 0.00 0.00 0.00 36 1026.1
20200919165808 61 19 4.0 8.0 0.00 0.00 0.00 35 1026.2
20200919164804 60 121 3.0 11.0 0.00 0.00 0.00 33 1026.2
20200919163805 60 49 7.0 11.0 0.00 0.00 0.00 34 1026.3
20200919162804 60 47 6.0 13.0 0.00 0.00 0.00 36 1026.5
20200919161803 60 102 3.0 10.0 0.00 0.00 0.00 35 1026.5
20200919160807 60 77 4.0 10.0 0.00 0.00 0.00 38 1026.5
20200919155803 60 16 4.0 11.0 0.00 0.00 0.00 37 1026.6
20200919154804 59 42 3.0 10.0 0.00 0.00 0.00 38 1026.5
20200919153812 59 35 4.0 14.0 0.00 0.00 0.00 37 1026.7
20200919152804 59 10 4.0 14.0 0.00 0.00 0.00 38 1026.7
20200919151803 58 43 5.0 13.0 0.00 0.00 0.00 40 1026.8
20200919150806 58 57 7.0 18.0 0.00 0.00 0.00 40 1026.8
20200919145805 57 359 5.0 11.0 0.00 0.00 0.00 41 1026.9
20200919144806 58 62 7.0 12.0 0.00 0.00 0.00 42 1026.8
20200919143805 57 28 4.0 12.0 0.00 0.00 0.00 45 1026.8